Regional Weather Roundup
Issued by NWS

Home | Current Version | Previous Version | Graphics & Text | Print | Product List | Glossary On
Versions: 1 2 3 4 5 6 7 8 9 10 11 12 13 14 15 16 17 18 19 20 21 22 23 24 25 26 27 28 29 30 31 32 33 34 35 36 37 38 39 40 41 42 43 44 45 46 47 48 49 50
000
ASUS43 KLMK 271702
RWRKY
KENTUCKY REGIONAL WEATHER ROUNDUP
NATIONAL WEATHER SERVICE LOUISVILLE KY
1200 PM EST SAT DEC 27 2014

NOTE "FAIR" INDICATES FEW OR NO CLOUDS BELOW 12,000 FEET
WITH NO SIGNIFICANT WEATHER AND/OR OBSTRUCTIONS TO VISIBILITY.

KYZ001>023-026-027-061>063-070>075-271800-
WESTERN AND SOUTH CENTRAL KENTUCKY

CITY           SKY/WX    TMP DP  RH WIND       PRES   REMARKS
PADUCAH        CLOUDY    50  48  93 S6        30.16S
HENDERSON      CLOUDY    48  45  87 S7        30.16F
OWENSBORO      LGT RAIN  48  46  93 S9        30.18F
HOPKINSVILLE   CLOUDY    50  45  82 SE3       30.18F
BOWLING GREEN  CLOUDY    51  44  77 SE3       30.21F
GLASGOW        NOT AVBL
$$

KYZ024-025-028>034-038-045-046-053-271800-
NORTH CENTRAL KENTUCKY

CITY           SKY/WX    TMP DP  RH WIND       PRES   REMARKS
LOUISVILLE/SDF CLOUDY    50  43  77 S10       30.20F
LOUISVILLE/LOU CLOUDY    49  43  80 S8        30.20F
FORT KNOX      CLOUDY    48  44  87 S13       30.18F
$$

KYZ035>037-039>044-047>052-055>060-089>105-271800-
NORTHEAST KENTUCKY

CITY           SKY/WX    TMP DP  RH WIND       PRES   REMARKS
LEXINGTON      CLOUDY    53  36  52 SW13      30.20F
COVINGTON      CLOUDY    51  39  63 S12       30.16F
FRANKFORT      CLOUDY    51  42  71 SW16      30.19F
$$

KYZ054-064>069-076>088-106>120-271800-
SOUTHEAST KENTUCKY

CITY           SKY/WX    TMP DP  RH WIND       PRES   REMARKS
JACKSON        PTSUNNY   54  30  40 CALM      30.23F
LONDON         CLOUDY    56  29  35 S8        30.24F
SOMERSET       NOT AVBL
MIDDLESBORO    CLOUDY    50  36  57 SE6       30.28F
MONTICELLO     CLOUDY    55  37  50 S6        30.26F
$$




USA.gov is the U.S. government's official web portal to all federal, state and local government web resources and services.